Limerick, Ireland

1:04 AM GMT on February 28, 2017 (GMT +0000)
Shannon

Weather History for EINN - November, 2012

Change the Weather History Date:

Monday, November 12, 2012

  Actual Average Record
Temperature  
Mean Temperature 49 °F -  
Max Temperature 55 °F 50 °F 59 °F (2015)
Min Temperature 43 °F 39 °F 33 °F (2007)
Degree Days  
Heating Degree Days 16    
Moisture  
Dew Point 52 °F    
Average Humidity 96    
Maximum Humidity 100    
Minimum Humidity 88    
Precipitation  
Precipitation 0.08 in 0.13 in - ()
Sea Level Pressure  
Sea Level Pressure 29.90 in    
Wind  
Wind Speed 11 mph ()    
Max Wind Speed 20 mph    
Max Gust Speed -    
Visibility 4.1 miles    
Events Rain    
Averages and records for this station are not official NWS values.
T = Trace of Precipitation, MM = Missing Value Source: Averaged Metar Reports

Daily Weather History Graph

Daily Weather History Graph

Search for Another Location

Airport or City:

Trip Planner

Search our weather history database for the weather conditions in past years. The results will help you decide how hot, cold, wet, or windy it might be!

Date:

Astronomy

Nov. 12, 2012 Rise Set
Actual Time 7:53 AM GMT 4:45 PM GMT
Civil Twilight 7:15 AM GMT 5:23 PM GMT
Nautical Twilight 6:33 AM GMT 6:05 PM GMT
Astronomical Twilight 5:53 AM GMT 6:45 PM GMT
Moon 5:53 AM GMT (11/12) 3:46 PM GMT (11/12)
Length of Visible Light 10h 07m
Length of Day
8h 52m
Waning Crescent, 3% of the Moon is Illuminated
Nov 12
Waning Crescent
Nov 13
New
Nov 20
First Quarter
Nov 28
Full
Dec 6
Last Quarter

Hourly Weather History & Observations

Time (GMT) Temp. Windchill Dew Point Humidity Pressure Visibility Wind Dir Wind Speed Gust Speed Precip Events Conditions
12:00 AM 47 °F - 46 °F 92% 29.87 in 2 mi SSE 11.2 mph - - Rain Drizzle
12:00 AM 46.4 °F 41.5 °F 46.4 °F 100% 29.86 in 1.7 mi SSE 10.4 mph - N/A   Light Drizzle
12:30 AM 46.4 °F 41.5 °F 46.4 °F 100% 29.86 in 1.6 mi South 10.4 mph - N/A Rain Light Rain
1:00 AM 48.2 °F - 46.4 °F 93% 29.86 in 1.7 mi South 10.4 mph - N/A   Drizzle
1:30 AM 48.2 °F - 48.2 °F 100% 29.83 in - South 10.4 mph - N/A   Light Drizzle
2:00 AM 48.2 °F - 48.2 °F 100% 29.83 in 1.9 mi South 9.2 mph - N/A   Drizzle
2:30 AM 50.0 °F - 48.2 °F 94% 29.83 in 1.6 mi South 9.2 mph - N/A   Drizzle
3:00 AM 50.0 °F - 50.0 °F 100% 29.83 in 1.7 mi South 6.9 mph - N/A Rain Light Rain
3:30 AM 51.8 °F - 51.8 °F 100% 29.83 in 1.8 mi SW 11.5 mph - N/A Rain Light Rain
4:00 AM 51.8 °F - 51.8 °F 100% 29.83 in 1.7 mi SW 13.8 mph - N/A Rain Light Rain
4:30 AM 51.8 °F - 51.8 °F 100% 29.83 in - SW 15.0 mph - N/A Rain Light Rain
5:00 AM 53.6 °F - 51.8 °F 94% 29.83 in 1.9 mi WSW 18.4 mph - N/A Rain Light Rain
5:30 AM 53.6 °F - 53.6 °F 100% 29.86 in - WSW 18.4 mph - N/A   Light Drizzle
6:00 AM 54 °F - 53 °F 93% 29.87 in 4 mi WSW 15.7 mph - - Rain Light Drizzle
6:00 AM 53.6 °F - 51.8 °F 94% 29.86 in 3.7 mi WSW 16.1 mph - N/A   Light Drizzle
6:30 AM 53.6 °F - 51.8 °F 94% 29.86 in 4.3 mi SW 17.3 mph - N/A   Light Drizzle
7:00 AM 53.6 °F - 51.8 °F 94% 29.86 in 3.1 mi WSW 19.6 mph - N/A   Light Drizzle
7:30 AM 53.6 °F - 51.8 °F 94% 29.89 in 5.6 mi SW 15.0 mph - N/A   Light Drizzle
8:00 AM 53.6 °F - 51.8 °F 94% 29.89 in 3.7 mi WSW 18.4 mph - N/A   Light Drizzle
8:30 AM 53.6 °F - 51.8 °F 94% 29.89 in 4.3 mi WSW 18.4 mph - N/A   Light Drizzle
9:00 AM 53.6 °F - 51.8 °F 94% 29.92 in 6.2 mi SW 11.5 mph - N/A   Mostly Cloudy
9:30 AM 53.6 °F - 51.8 °F 94% 29.92 in 6.2 mi SSW 12.7 mph - N/A   Mostly Cloudy
10:00 AM 53.6 °F - 51.8 °F 94% 29.92 in 6.2 mi SW 15.0 mph - N/A   Mostly Cloudy
10:30 AM 55.4 °F - 51.8 °F 88% 29.92 in 6.2 mi SW 15.0 mph - N/A   Mostly Cloudy
11:00 AM 55.4 °F - 51.8 °F 88% 29.92 in 6.2 mi SW 15.0 mph - N/A   Mostly Cloudy
11:30 AM 55.4 °F - 51.8 °F 88% 29.92 in 6.2 mi SSW 15.0 mph - N/A   Mostly Cloudy
12:00 PM 55 °F - 53 °F 89% 29.93 in 10 mi SSW 15.7 mph - - Rain Light Drizzle
12:00 PM 55.4 °F - 53.6 °F 94% 29.92 in 6.2 mi SSW 15.0 mph - N/A   Overcast
12:30 PM 55.4 °F - 53.6 °F 94% 29.92 in 1.6 mi SSW 12.7 mph - N/A Rain Light Rain
1:00 PM 55.4 °F - 53.6 °F 94% 29.92 in 3.1 mi SSW 10.4 mph - N/A   Light Drizzle
1:30 PM 55.4 °F - 53.6 °F 94% 29.92 in 1.9 mi SSW 12.7 mph - N/A Rain Light Rain
2:00 PM 55.4 °F - 53.6 °F 94% 29.92 in 1.9 mi SSW 10.4 mph - N/A Rain Light Rain
2:30 PM 53.6 °F - 53.6 °F 100% 29.92 in 2.8 mi SSW 10.4 mph - N/A   Light Drizzle
3:00 PM 55.4 °F - 53.6 °F 94% 29.92 in 6.2 mi SSW 8.1 mph - N/A   Mostly Cloudy
3:30 PM 55.4 °F - 53.6 °F 94% 29.92 in 6.2 mi SSW 9.2 mph - N/A   Mostly Cloudy
4:00 PM 55.4 °F - 53.6 °F 94% 29.92 in 6.2 mi South 5.8 mph - N/A   Mostly Cloudy
4:30 PM 55.4 °F - 53.6 °F 94% 29.92 in 3.1 mi SW 9.2 mph - N/A Rain Light Rain
5:00 PM 53.6 °F - 53.6 °F 100% 29.92 in 1.9 mi SSW 9.2 mph - N/A Rain Light Rain
5:30 PM 55.4 °F - 53.6 °F 94% 29.92 in 1.9 mi SSW 11.5 mph - N/A Rain Light Rain
6:00 PM 55 °F - 54 °F 98% 29.95 in 2 mi South 8.9 mph - - Rain Light Rain
6:00 PM 55.4 °F - 55.4 °F 100% 29.95 in 1.9 mi South 9.2 mph - N/A Rain Light Rain
6:30 PM 53.6 °F - 53.6 °F 100% 29.95 in 4.3 mi South 6.9 mph - N/A Rain Light Rain
7:00 PM 53.6 °F - 53.6 °F 100% 29.95 in 6.2 mi South 9.2 mph - N/A   Light Drizzle
7:30 PM 53.6 °F - 53.6 °F 100% 29.95 in 3.1 mi South 6.9 mph - N/A Rain Light Rain
8:00 PM 53.6 °F - 53.6 °F 100% 29.95 in 5.0 mi SSE 5.8 mph - N/A   Light Drizzle
8:30 PM 53.6 °F - 53.6 °F 100% 29.95 in 6.2 mi SE 8.1 mph - N/A   Mostly Cloudy
9:00 PM 53.6 °F - 53.6 °F 100% 29.95 in 6.2 mi SSE 9.2 mph - N/A   Mostly Cloudy
9:30 PM 53.6 °F - 53.6 °F 100% 29.95 in 6.2 mi SSE 6.9 mph - N/A   Mostly Cloudy
10:00 PM 53.6 °F - 53.6 °F 100% 29.95 in 6.2 mi SSE 5.8 mph - N/A   Mostly Cloudy
10:30 PM 53.6 °F - 53.6 °F 100% 29.95 in 6.2 mi SSE 8.1 mph - N/A   Mostly Cloudy
11:00 PM 53.6 °F - 53.6 °F 100% 29.95 in 6.2 mi SE 8.1 mph - N/A   Mostly Cloudy
11:30 PM 53.6 °F - 53.6 °F 100% 29.95 in 6.2 mi SE 9.2 mph - N/A   Mostly Cloudy